This is the latest recevied weather packets stored in our database for station/object SV9TNF-54. If no packets are shown the sender has not sent any weather packets the latest 10 day(s).
| Time | Temp. | Humidity | Pressure | Rain* | Wind** | Luminosity | Snow |
|---|---|---|---|---|---|---|---|
| 1788299308 | 29.44° C | 34% | 1014.6 hPa | 0 mm | 25.48 m/s, 352° | - | - |
| 1788299007 | 29.44° C | 34% | 1014.6 hPa | 0 mm | 25.48 m/s, 352° | - | - |
| 1788298708 | 29.44° C | 34% | 1014.6 hPa | 0 mm | 25.48 m/s, 352° | - | - |
| 1788298407 | 29.44° C | 34% | 1014.6 hPa | 0 mm | 25.48 m/s, 352° | - | - |
| 1788298107 | 29.44° C | 36% | 1014.2 hPa | 0 mm | 32.19 m/s, 29° | - | - |
| 1788297807 | 29.44° C | 36% | 1014.2 hPa | 0 mm | 32.19 m/s, 29° | - | - |
| 1788297507 | 29.44° C | 36% | 1014.2 hPa | 0 mm | 32.19 m/s, 29° | - | - |
| 1788297207 | 28.89° C | 37% | 1014.6 hPa | 0 mm | 19.22 m/s, 28° | - | - |
| 1788296907 | 28.89° C | 37% | 1014.6 hPa | 0 mm | 19.22 m/s, 28° | - | - |
| 1788296607 | 28.89° C | 37% | 1014.6 hPa | 0 mm | 19.22 m/s, 28° | - | - |
| 1788296307 | 28.89° C | 37% | 1014.6 hPa | 0 mm | 19.22 m/s, 28° | - | - |
| 1788296006 | 28.89° C | 37% | 1014.6 hPa | 0 mm | 19.22 m/s, 28° | - | - |
| 1788295706 | 28.89° C | 37% | 1014.6 hPa | 0 mm | 19.22 m/s, 28° | - | - |
| 1788295406 | 28.89° C | 37% | 1014.6 hPa | 0 mm | 21.01 m/s, 346° | - | - |
| 1788295106 | 28.89° C | 37% | 1014.6 hPa | 0 mm | 21.01 m/s, 346° | - | - |
| 1788294806 | 28.89° C | 37% | 1014.6 hPa | 0 mm | 21.01 m/s, 346° | - | - |
| 1788294506 | 28.89° C | 37% | 1014.6 hPa | 0 mm | 21.01 m/s, 346° | - | - |
| 1788294206 | 28.89° C | 37% | 1014.6 hPa | 0 mm | 21.01 m/s, 346° | - | - |
| 1788293906 | 28.89° C | 37% | 1014.6 hPa | 0 mm | 21.01 m/s, 346° | - | - |
| 1788293606 | 28.89° C | 38% | 1014.6 hPa | 0 mm | 16.09 m/s, 354° | - | - |
| 1788293305 | 28.89° C | 38% | 1014.6 hPa | 0 mm | 16.09 m/s, 354° | - | - |
| 1788293006 | 28.89° C | 38% | 1014.6 hPa | 0 mm | 16.09 m/s, 354° | - | - |
| 1788292705 | 28.89° C | 39% | 1014.9 hPa | 0 mm | 12.96 m/s, 360° | - | - |
| 1788292405 | 28.89° C | 39% | 1014.9 hPa | 0 mm | 12.96 m/s, 360° | - | - |
| 1788292105 | 28.89° C | 39% | 1014.9 hPa | 0 mm | 12.96 m/s, 360° | - | - |
* Rain latest hour (hover to see other rain measurements)
** Current wind speed in m/s (hover to see current wind gust speed)